Location: Chicago
(41.8500°N, 87.6500°W)
Time: 06:56:59
(UTC-06:00)

Tiangong 2 - Visible Passes

Search period start: 23 November 2017 00:00
Search period end: 03 December 2017 00:00
Orbit: 386 x 392 km, 42.8° (Epoch: 22 November)

Date Brightness Start Highest point End Pass type
(mag) Time Alt. Az. Time Alt. Az. Time Alt. Az.
25 Nov 3.7 06:16:53 10° SSW 06:19:25 22° SSE 06:21:58 10° E visible
26 Nov 4.1 05:19:47 10° S 05:21:25 13° SE 05:23:03 10° ESE visible
27 Nov 2.6 05:56:42 10° SW 05:59:39 36° SSE 06:02:39 10° E visible
28 Nov 3.2 05:00:29 19° S 05:01:34 23° SSE 05:04:10 10° E visible
29 Nov 1.5 05:37:50 19° WSW 05:39:55 59° SSE 05:43:05 10° E visible
30 Nov 3.0 04:42:41 30° ESE 04:42:41 30° ESE 04:44:44 10° E visible
30 Nov 1.1 06:15:16 10° W 06:18:28 79° N 06:21:41 10° E visible
01 Dec 1.0 05:19:43 62° WSW 05:20:11 85° SSE 05:23:23 10° E visible
02 Dec 4.2 04:24:19 16° E 04:24:19 16° E 04:25:06 10° E visible
02 Dec 1.1 05:56:38 19° W 05:58:47 72° N 06:01:59 10° E visible
